Regional Weather Roundup
Issued by NWS

Home | Current Version | Previous Version | Graphics & Text | Print | Product List | Glossary On
Versions: 1 2 3 4 5 6 7 8 9 10 11 12 13 14 15 16 17 18 19 20 21 22 23 24 25 26 27 28 29 30 31 32 33 34 35 36 37 38 39 40 41 42 43 44 45 46 47 48 49 50
909
ASUS45 KTFX 271610
RWRMT
MONTANA REGIONAL WEATHER ROUNDUP
NATIONAL WEATHER SERVICE GREAT FALLS MT
1000 AM MDT MON MAR 27 2017

NOTE: "FAIR" INDICATES FEW OR NO CLOUDS BELOW 12000 FEET WITH NO
SIGNIFICANT WEATHER AND/OR OBSTRUCTIONS TO VISIBILITY.

MTZ001>007-043-271700-
WEST OF THE DIVIDE

CITY           SKY/WX    TMP DP  RH WIND       PRES   REMARKS
KALISPELL      LGT RAIN  40  37  89 CALM      29.88R
MISSOULA       LGT RAIN  39  38  96 CALM      29.92R FOG
BUTTE          CLOUDY    41  29  62 N5        29.86R
MULLAN PASS    SNOW      29  29 100 VRB7      29.85R VSB 1/4 WCI  22
ANACONDA         N/A     41  28  60 CALM      29.87S
DEER LODGE       N/A     39  34  81 CALM      29.90R
EUREKA           N/A     39  36  87 CALM      29.88R
HAMILTON         N/A     41  36  81 S3        29.90R
PLAINS           N/A     41  36  82 CALM      29.92R
RONAN            N/A     42  39  89 W3        29.94R
$$

MTZ008-052>055-271700-
SOUTHWEST MONTANA

CITY           SKY/WX    TMP DP  RH WIND       PRES   REMARKS
BOZEMAN        CLOUDY    45  33  63 CALM      29.86S
DILLON         CLOUDY    41  29  62 S3        29.85S
W YELLOWSTONE  CLOUDY    32  32 100 SW3       29.89S
ENNIS          PTSUNNY   45  30  57 S10G17    29.89F
THREE FORKS      N/A     45   0  15 E1        29.87R
TWIN BRIDGES     N/A     41  31  68 S2        29.87R
$$

MTZ009-010-012-014-046-048-049-054-271700-
EAST SLOPES AND CENTRAL MONTANA

CITY           SKY/WX    TMP DP  RH WIND       PRES   REMARKS
CUT BANK       CLOUDY    42  32  67 N5        29.81R
GREAT FALLS    SUNNY     47  29  49 SW10      29.82R
MALMSTROM AFB  SUNNY     48  30  49 SW10      29.83S
HELENA         CLOUDY    47  36  65 N3        29.85R
AUGUSTA          N/A     45  28  51 SW10      29.81S
BOWMANS CRNR     N/A     44  28  52 S12       29.81R
CHOTEAU          N/A     48  28  46 S7        29.83S
CONRAD           N/A     47  37  68 S1        29.85R
FAIRFIELD        N/A     47  28  47 W5        29.81S
POWER            N/A     47  30  52 NW8       29.80F
RAYNESFORD       N/A     47  29  48 W12G18    29.83R
$$

MTZ011-013-016-021-045-047-050-051-271700-
NORTH CENTRAL MONTANA

CITY           SKY/WX    TMP DP  RH WIND       PRES   REMARKS
HAVRE          CLOUDY    45  28  51 CALM      29.83R
LEWISTOWN      SUNNY     47  30  51 NE3       29.83F
N BAR RANCH      N/A     48  28  46 NW8       29.86R
CHINOOK          N/A     45  27  49 E12       29.83F
DENTON           N/A     47  32  56 S3        29.80S
GEYSER         PTSUNNY   45  31  57 W6        29.83R
GRASS RANGE      N/A     47  31  51 W3        29.81R
STANFORD         N/A     46  31  54 CALM      29.82S
WINIFRED         N/A     47  31  53 W3        29.83S
$$

MTZ017>020-022>027-061-062-271700-
NORTHEAST MONTANA

CITY           SKY/WX    TMP DP  RH WIND       PRES   REMARKS
GLASGOW        CLOUDY    50  31  48 E10       29.85F
JORDAN           N/A     43  34  70 E6        29.84R
SIDNEY         PTSUNNY   46  32  58 SE3       29.90R
WOLF POINT     CLOUDY    43  32  65 E12       29.88F
MALTA          MOSUNNY   43  30  61 E8        29.87R
PLENTYWOOD       N/A     43  34  70 CALM      29.90S
POPLAR           N/A     39  28  65 N12       29.89S WCI  32
SCOBEY           N/A     36  27  70 CALM      29.89R
$$

MTZ028>42-056>058-271700-
SOUTHCENTRAL AND SOUTHEAST MONTANA

CITY           SKY/WX    TMP DP  RH WIND       PRES   REMARKS
BAKER          SUNNY     51  34  52 SE12      29.88S
BILLINGS       MOSUNNY   50  31  48 W7        29.85R
LIVINGSTON     CLOUDY   N/A N/A N/A MISG      29.85R
MILES CITY     CLOUDY    47  36  65 SE9       29.85R
BIG TIMBER     PTSUNNY   48  32  53 W14       29.86S
EKALAKA          N/A     50  31  48 SE14      29.86R
FORSYTH          N/A     52  36  54 E3        29.83R
HARLOWTON        N/A     47  33  58 W16       29.83F
LAUREL           N/A     45  24  43 CALM      29.85S
ROUNDUP          N/A     50  31  48 SW7       29.76S
$$

REGIONAL REPORTS...DAKOTAS

CITY           SKY/WX    TMP DP  RH WIND       PRES   REMARKS
WILLISTON      PTSUNNY   48  29  47 CALM      29.91R
MINOT          CLOUDY    39  34  82 NW6       29.93S
DICKINSON      SUNNY     50  36  58 S7        29.89R
BEACH            N/A    N/A N/A N/A MISG        N/A
TIOGA            N/A     45  34  65 NE10      29.92S
WATFORD CITY     N/A     43  36  75 CALM      29.91R
BISMARCK       SUNNY     48  38  68 E5        29.94S
GRAND FORKS    FOG       38  38 100 VRB6      30.01R VSB 1/4
FARGO          MOSUNNY   41  40  96 NE3       30.00S
BUFFALO SD       N/A     48  39  71 S9        29.83S
RAPID CITY     PTSUNNY   39  37  92 SE8       29.90R
$$

REGIONAL REPORTS...WYOMING/IDAHO/WASHINGTON

CITY           SKY/WX    TMP DP  RH WIND       PRES   REMARKS
GILLETTE       SUNNY     44  36  73 S10       29.85R
SHERIDAN       SUNNY     51  36  56 N6        29.84S
BUFFALO WY     SUNNY     50  31  48 N7        29.84S
CODY           PTSUNNY   45  26  47 NE3       29.86S
YELLOWSTONE LA   N/A     29  28  96 VRB3      29.91S
IDAHO FALLS    CLOUDY    41  36  82 SW5       29.90R
SALMON         CLOUDY    41  34  75 N3        29.88S
BOISE          PTSUNNY   44  39  82 NW15      29.99R
SPOKANE        PTSUNNY   41  37  86 SW15      29.94R
$$

REGIONAL REPORTS...ALBERTA

CITY           SKY/WX    TMP DP  RH WIND       PRES   REMARKS
EDMONTON       CLOUDY    34  30  86 SE9       29.82R WCI  26
CALGARY        MOSUNNY   43  23  45 CALM      29.78R
LETHBRIDGE     PTSUNNY   46  32  57 SW8       29.80R
MEDICINE HAT   CLOUDY    50  30  46 VRB6      29.82R
WATERTON GATE    N/A     43  30  61 SW9         N/A
CARDSTON         N/A     45  28  53 SW5         N/A
MILK RIVER       N/A     43  32  65 S2          N/A
$$

REGIONAL REPORTS...SASKATCHEWAN

CITY           SKY/WX    TMP DP  RH WIND       PRES   REMARKS
SWIFT CURRENT  PTSUNNY   30  30 100 E9        29.88R WCI  22
REGINA         FOG       30  30 100 E6        29.96R VSB 1/2 WCI  24
CYPRESS HILLS    N/A     41  18  38 SE7         N/A
VAL MARIE        N/A     43  27  52 NE6         N/A
ROCKGLEN         N/A     43  23  45 E2          N/A
ASSINIBOIA       N/A     34  30  86 SE9         N/A  WCI  26
$$




USA.gov is the U.S. government's official web portal to all federal, state and local government web resources and services.